sat.trackr.live / text

‹ back to catalog

QIANFAN-71

NORAD 62801 · 2025-016S

PAYLOAD ACTIVE UNKNOWN

§ Identity

Operator
Country
PRC
Launch date
2025-01-23
Launch site
TAISC
Launch vehicle
Mass (kg)
RCS (m²)

External: N2YO · Heavens-Above · Gunter

§ Orbital elements

Epoch: 2026-09-22T21:20:40.394688Z

Period
106.59 min
Inclination
88.9663°
Eccentricity
0.0014065
Mean motion
13.51027102 rev/d
Perigee alt
1,058.0 km
Apogee alt
1,079.0 km
Semi-major
7,446.6 km
B*
6.0266e-5
RAAN
73.5552°
Arg perigee
244.7582°
Mean anomaly
115.2111°
Rev number
8,560

§ Raw data

QIANFAN-711 62801U 25016S   26265.88935642  .00000051  00000+0  60266-4 0  99962 62801  88.9663  73.5552 0014065 244.7582 115.2111 13.51027102 85607

JSON: /api/v1/satellites/62801 · /tle

For live sub-satellite position, see the globe view (requires WebGL).

§ Visibility from observer

Set your observer location to see the next 7 days of passes ≥ 10°. The values pass through the URL so the page stays shareable.

No JS? Fill the form by hand. The geolocation button needs JavaScript.